CW0146 Weather Reports


Display with metric or nautical units.
time (UTC)temp
F
wind
direction
speed
MPH
gust
MPH
rain 1hr
in
rain 24hr
in
rain mn
in
humidity
%
barometer
mb
20260831191454 97 148 2.0 4.0 0.00 0.00 0.00 42 1016.0
20260831190955 96 162 2.0 4.0 0.00 0.00 0.00 44 1016.0
20260831190456 96 172 4.0 5.0 0.00 0.00 0.00 42 1016.0
20260831185954 95 188 2.0 4.0 0.00 0.00 0.00 44 1016.0
20260831185454 95 127 2.0 3.0 0.00 0.00 0.00 45 1016.0
20260831184955 96 105 1.0 4.0 0.00 0.00 0.00 43 1016.0
20260831184454 97 94 2.0 4.0 0.00 0.00 0.00 42 1016.0
20260831183955 96 149 2.0 4.0 0.00 0.00 0.00 41 1016.0
20260831183456 96 153 2.0 5.0 0.00 0.00 0.00 41 1016.0
20260831182955 96 175 4.0 7.0 0.00 0.00 0.00 43 1016.0
20260831182455 95 92 2.0 4.0 0.00 0.00 0.00 44 1016.0
20260831181956 95 109 2.0 3.0 0.00 0.00 0.00 44 1016.0
20260831181456 95 182 2.0 3.0 0.00 0.00 0.00 48 1016.0
20260831180956 95 101 2.0 3.0 0.00 0.00 0.00 44 1017.0
20260831180455 95 141 2.0 2.0 0.00 0.00 0.00 45 1017.0
20260831175955 95 119 2.0 2.0 0.00 0.00 0.00 46 1017.0
20260831175455 95 187 3.0 4.0 0.00 0.00 0.00 43 1017.0
20260831174955 94 125 2.0 4.0 0.00 0.00 0.00 47 1017.0
20260831174454 93 88 2.0 4.0 0.00 0.00 0.00 48 1017.0
20260831173954 93 168 2.0 3.0 0.00 0.00 0.00 49 1017.0
20260831173455 93 178 2.0 4.0 0.00 0.00 0.00 51 1017.0
20260831172954 93 184 4.0 7.0 0.00 0.00 0.00 50 1017.0
20260831172456 92 172 2.0 4.0 0.00 0.00 0.00 52 1017.0
20260831171956 92 165 2.0 4.0 0.00 0.00 0.00 54 1017.0
20260831171454 92 189 4.0 6.0 0.00 0.00 0.00 54 1017.0
20260831170955 92 171 3.0 5.0 0.00 0.00 0.00 50 1017.0
20260831170457 92 162 3.0 6.0 0.00 0.00 0.00 52 1017.0
20260831165954 91 112 1.0 3.0 0.00 0.00 0.00 54 1017.0
20260831165454 91 84 2.0 3.0 0.00 0.00 0.00 53 1017.0
20260831164955 91 197 2.0 5.0 0.00 0.00 0.00 58 1017.0
20260831164455 91 148 1.0 3.0 0.00 0.00 0.00 56 1017.0
20260831163955 91 185 2.0 4.0 0.00 0.00 0.00 55 1017.0
20260831163454 90 157 3.0 5.0 0.00 0.00 0.00 56 1017.0
20260831162955 89 120 2.0 3.0 0.00 0.00 0.00 57 1017.0
20260831162456 89 171 2.0 4.0 0.00 0.00 0.00 62 1017.0
20260831161954 89 146 2.0 3.0 0.00 0.00 0.00 62 1017.0
20260831161455 89 172 4.0 6.0 0.00 0.00 0.00 63 1017.0
20260831160955 89 171 2.0 4.0 0.00 0.00 0.00 63 1017.0
20260831160455 89 185 2.0 3.0 0.00 0.00 0.00 62 1017.0
20260831155955 88 196 2.0 3.0 0.00 0.00 0.00 64 1017.0
20260831155457 88 213 3.0 7.0 0.00 0.00 0.00 62 1017.0
20260831154954 87 202 1.0 2.0 0.00 0.00 0.00 64 1017.0
20260831154457 87 188 2.0 4.0 0.00 0.00 0.00 65 1017.0
20260831153955 86 114 2.0 3.0 0.00 0.00 0.00 65 1017.0
20260831153454 85 188 2.0 3.0 0.00 0.00 0.00 71 1017.0
20260831152955 85 250 1.0 2.0 0.00 0.00 0.00 73 1017.0
20260831152455 85 177 2.0 3.0 0.00 0.00 0.00 73 1017.0
20260831152000 85 171 2.0 4.0 0.00 0.00 0.00 74 1017.0
20260831151454 84 269 1.0 2.0 0.00 0.00 0.00 74 1017.0
20260831150955 84 190 2.0 5.0 0.00 0.00 0.00 74 1017.0
20260831150455 83 218 1.0 2.0 0.00 0.00 0.00 75 1017.0
20260831145954 82 207 2.0 2.0 0.00 0.00 0.00 76 1017.0
20260831145454 82 170 3.0 4.0 0.00 0.00 0.00 77 1017.0
20260831144955 82 217 1.0 2.0 0.00 0.00 0.00 77 1017.0
20260831144454 82 179 2.0 3.0 0.00 0.00 0.00 78 1017.0
20260831143955 82 188 2.0 4.0 0.00 0.00 0.00 78 1017.0
20260831143455 82 174 2.0 4.0 0.00 0.00 0.00 79 1017.0
20260831142956 81 182 2.0 4.0 0.00 0.00 0.00 79 1017.0
20260831142454 81 149 2.0 5.0 0.00 0.00 0.00 79 1017.0
20260831141956 81 168 3.0 5.0 0.00 0.00 0.00 80 1017.0
20260831141455 81 178 2.0 4.0 0.00 0.00 0.00 81 1017.0
20260831140955 81 171 2.0 4.0 0.00 0.00 0.00 83 1017.0
20260831140455 81 171 3.0 6.0 0.00 0.00 0.00 83 1017.0
20260831135954 80 173 3.0 6.0 0.00 0.00 0.00 83 1017.0
20260831135456 80 165 2.0 4.0 0.00 0.00 0.00 84 1017.0
20260831134954 80 182 2.0 4.0 0.00 0.00 0.00 84 1017.0
20260831134455 80 209 2.0 3.0 0.00 0.00 0.00 85 1017.0
20260831133954 80 166 2.0 4.0 0.00 0.00 0.00 85 1017.0
20260831133454 80 179 2.0 3.0 0.00 0.00 0.00 85 1017.0
20260831132954 80 181 2.0 3.0 0.00 0.00 0.00 85 1017.0
20260831132454 80 172 2.0 4.0 0.00 0.00 0.00 85 1017.0
20260831131954 80 169 3.0 5.0 0.00 0.00 0.00 86 1017.0
20260831131458 80 172 2.0 3.0 0.00 0.00 0.00 86 1017.0
20260831130955 79 197 1.0 2.0 0.00 0.00 0.00 87 1017.0
20260831130454 79 173 2.0 4.0 0.00 0.00 0.00 88 1017.0
20260831125956 79 175 2.0 3.0 0.00 0.00 0.00 88 1017.0
20260831125455 79 187 2.0 3.0 0.00 0.00 0.00 88 1017.0
20260831124955 79 174 1.0 2.0 0.00 0.00 0.00 88 1016.0
20260831124454 79 360 0.0 0.0 0.00 0.00 0.00 88 1016.0
20260831123955 79 185 1.0 2.0 0.00 0.00 0.00 88 1016.0
20260831123454 79 207 0.0 1.0 0.00 0.00 0.00 88 1016.0
20260831122955 79 182 2.0 4.0 0.00 0.00 0.00 88 1016.0
20260831122454 79 178 1.0 4.0 0.00 0.00 0.00 87 1016.0
20260831121955 79 185 1.0 2.0 0.00 0.00 0.00 87 1016.0
20260831121454 79 161 3.0 4.0 0.00 0.00 0.00 88 1016.0
20260831120955 79 169 2.0 5.0 0.00 0.00 0.00 88 1016.0
20260831120454 79 163 1.0 3.0 0.00 0.00 0.00 87 1016.0
20260831115955 79 175 2.0 4.0 0.00 0.00 0.00 87 1016.0
20260831115455 79 168 2.0 5.0 0.00 0.00 0.00 87 1016.0
20260831114955 79 159 2.0 4.0 0.00 0.00 0.00 88 1016.0
20260831114454 79 168 1.0 2.0 0.00 0.00 0.00 88 1016.0
20260831113954 79 179 2.0 4.0 0.00 0.00 0.00 88 1016.0
20260831113454 79 243 0.0 1.0 0.00 0.00 0.00 88 1016.0
20260831112954 79 199 2.0 3.0 0.00 0.00 0.00 87 1016.0
20260831112455 79 176 1.0 5.0 0.00 0.00 0.00 87 1016.0
20260831111954 79 173 2.0 3.0 0.00 0.00 0.00 87 1016.0
20260831111456 79 174 2.0 4.0 0.00 0.00 0.00 86 1016.0
20260831110954 79 177 3.0 6.0 0.00 0.00 0.00 86 1016.0
20260831110457 79 163 2.0 4.0 0.00 0.00 0.00 86 1016.0
20260831105954 79 174 2.0 4.0 0.00 0.00 0.00 86 1016.0
20260831105454 80 193 1.0 2.0 0.00 0.00 0.00 86 1016.0
20260831104954 80 184 3.0 5.0 0.00 0.00 0.00 86 1016.0
20260831104455 80 173 3.0 4.0 0.00 0.00 0.00 86 1016.0
20260831103954 80 163 2.0 3.0 0.00 0.00 0.00 85 1016.0
20260831103455 80 171 4.0 6.0 0.00 0.00 0.00 85 1016.0
20260831102954 80 177 4.0 5.0 0.00 0.00 0.00 85 1016.0
20260831102456 80 165 3.0 6.0 0.00 0.00 0.00 85 1016.0
20260831101955 80 188 1.0 2.0 0.00 0.00 0.00 85 1016.0
20260831101456 80 184 1.0 4.0 0.00 0.00 0.00 85 1016.0
20260831100955 80 174 3.0 4.0 0.00 0.00 0.00 86 1016.0
20260831100454 80 175 3.0 4.0 0.00 0.00 0.00 86 1016.0
20260831095954 80 164 2.0 4.0 0.00 0.00 0.00 86 1016.0
20260831095455 80 172 2.0 4.0 0.00 0.00 0.00 85 1016.0
20260831094954 80 165 2.0 4.0 0.00 0.00 0.00 85 1016.0
20260831094456 80 177 1.0 3.0 0.00 0.00 0.00 85 1016.0
20260831093955 79 166 3.0 5.0 0.00 0.00 0.00 86 1016.0
20260831093454 79 174 2.0 4.0 0.00 0.00 0.00 86 1016.0
20260831092954 79 167 2.0 4.0 0.00 0.00 0.00 86 1016.0
20260831092455 79 168 4.0 7.0 0.00 0.00 0.00 86 1016.0
20260831091954 79 166 3.0 5.0 0.00 0.00 0.00 86 1016.0
20260831091454 79 178 2.0 4.0 0.00 0.00 0.00 85 1016.0
20260831090954 79 172 3.0 4.0 0.00 0.00 0.00 85 1016.0
20260831090455 79 163 3.0 7.0 0.00 0.00 0.00 85 1016.0
20260831085954 79 167 2.0 4.0 0.00 0.00 0.00 85 1016.0
20260831085455 79 174 5.0 7.0 0.00 0.00 0.00 85 1016.0
20260831084955 79 158 1.0 3.0 0.00 0.00 0.00 85 1016.0
20260831084454 80 183 3.0 6.0 0.00 0.00 0.00 84 1016.0
20260831083954 80 178 2.0 4.0 0.00 0.00 0.00 84 1016.0
20260831083458 80 186 4.0 10.0 0.00 0.00 0.00 84 1016.0
20260831082954 80 182 2.0 6.0 0.00 0.00 0.00 84 1016.0
20260831082454 80 164 4.0 9.0 0.00 0.00 0.00 84 1016.0
20260831081954 80 172 2.0 4.0 0.00 0.00 0.00 84 1016.0
20260831081455 80 167 3.0 6.0 0.00 0.00 0.00 83 1016.0
20260831080955 80 181 5.0 9.0 0.00 0.00 0.00 83 1016.0
20260831080454 80 178 4.0 6.0 0.00 0.00 0.00 82 1016.0
20260831075955 80 177 4.0 6.0 0.00 0.00 0.00 82 1016.0
20260831075454 80 185 2.0 6.0 0.00 0.00 0.00 81 1016.0
20260831074954 81 178 3.0 5.0 0.00 0.00 0.00 81 1016.0
20260831074454 81 173 3.0 7.0 0.00 0.00 0.00 79 1016.0
20260831073954 81 178 2.0 5.0 0.00 0.00 0.00 79 1016.0
20260831073455 81 159 3.0 6.0 0.00 0.00 0.00 78 1016.0
20260831072955 81 161 1.0 2.0 0.00 0.00 0.00 77 1016.0
20260831072455 81 179 4.0 8.0 0.00 0.00 0.00 77 1016.0
20260831071957 81 177 2.0 4.0 0.00 0.00 0.00 76 1016.0
20260831071454 81 181 4.0 6.0 0.00 0.00 0.00 76 1016.0
20260831070956 81 182 1.0 3.0 0.00 0.00 0.00 76 1016.0
20260831070454 82 150 1.0 3.0 0.00 0.00 0.00 75 1016.0
20260831065955 82 184 2.0 4.0 0.00 0.00 0.00 75 1016.0
20260831065455 82 192 2.0 3.0 0.00 0.00 0.00 74 1016.0
20260831064954 82 183 2.0 3.0 0.00 0.00 0.00 74 1016.0
20260831064455 82 160 2.0 4.0 0.00 0.00 0.00 73 1016.0
20260831063955 82 186 1.0 2.0 0.00 0.00 0.00 73 1016.0
20260831063455 82 157 0.0 2.0 0.00 0.00 0.00 72 1016.0
20260831062954 82 63 0.0 1.0 0.00 0.00 0.00 71 1016.0
20260831062455 83 92 1.0 3.0 0.00 0.00 0.00 71 1016.0
20260831061954 83 176 2.0 4.0 0.00 0.00 0.00 71 1016.0
20260831061454 83 143 1.0 2.0 0.00 0.00 0.00 70 1016.0
20260831060954 83 159 2.0 4.0 0.00 0.00 0.00 70 1016.0
20260831060454 83 162 0.0 2.0 0.00 0.00 0.00 69 1016.0
20260831055954 83 108 0.0 1.0 0.00 0.00 0.00 68 1016.0
20260831055454 83 192 0.0 2.0 0.00 0.00 0.00 68 1016.0
20260831054956 84 160 1.0 2.0 0.00 0.00 0.00 68 1016.0
20260831054457 84 144 0.0 2.0 0.00 0.00 0.00 67 1016.0
20260831053954 84 182 1.0 4.0 0.00 0.00 0.00 67 1016.0
20260831053454 84 195 2.0 6.0 0.00 0.00 0.00 66 1016.0
20260831052954 84 179 2.0 4.0 0.00 0.00 0.00 66 1016.0
20260831052456 84 117 1.0 2.0 0.00 0.00 0.00 65 1016.0
20260831051954 85 190 1.0 2.0 0.00 0.00 0.00 65 1016.0
20260831051454 85 143 2.0 4.0 0.00 0.00 0.00 64 1016.0
20260831050955 85 132 1.0 2.0 0.00 0.00 0.00 64 1016.0
20260831050454 85 171 2.0 5.0 0.00 0.00 0.00 63 1016.0
20260831045954 85 195 1.0 2.0 0.00 0.00 0.00 63 1016.0
20260831045455 85 182 1.0 2.0 0.00 0.00 0.00 62 1015.0
20260831044954 86 180 2.0 6.0 0.00 0.00 0.00 62 1015.0
20260831044454 86 122 1.0 4.0 0.00 0.00 0.00 61 1015.0
20260831043954 86 73 0.0 1.0 0.00 0.00 0.00 61 1015.0
20260831043455 86 193 2.0 5.0 0.00 0.00 0.00 61 1015.0
20260831042955 86 149 3.0 6.0 0.00 0.00 0.00 61 1015.0
20260831042454 86 137 1.0 3.0 0.00 0.00 0.00 61 1015.0
20260831041955 86 170 2.0 4.0 0.00 0.00 0.00 60 1015.0
20260831041455 87 166 3.0 6.0 0.00 0.00 0.00 60 1015.0
20260831040956 87 179 2.0 5.0 0.00 0.00 0.00 60 1015.0
20260831040454 87 152 1.0 2.0 0.00 0.00 0.00 60 1015.0
20260831035954 87 139 1.0 2.0 0.00 0.00 0.00 59 1015.0
20260831035454 87 73 2.0 4.0 0.00 0.00 0.00 59 1015.0
20260831034954 87 105 2.0 3.0 0.00 0.00 0.00 59 1015.0
20260831034454 87 106 2.0 3.0 0.00 0.00 0.00 59 1015.0
20260831033954 87 117 1.0 3.0 0.00 0.00 0.00 59 1015.0
20260831033454 87 99 2.0 4.0 0.00 0.00 0.00 58 1015.0
20260831032954 87 142 1.0 4.0 0.00 0.00 0.00 58 1015.0
20260831032454 88 165 1.0 3.0 0.00 0.00 0.00 58 1015.0
20260831031954 88 156 1.0 3.0 0.00 0.00 0.00 58 1015.0
20260831031455 88 152 1.0 4.0 0.00 0.00 0.00 58 1015.0
20260831030955 88 170 2.0 5.0 0.00 0.00 0.00 58 1015.0
20260831030454 88 154 2.0 4.0 0.00 0.00 0.00 58 1015.0
20260831025954 88 142 1.0 3.0 0.00 0.00 0.00 58 1015.0
20260831025454 88 166 1.0 2.0 0.00 0.00 0.00 58 1015.0
20260831024954 88 147 1.0 3.0 0.00 0.00 0.00 57 1015.0
20260831024454 89 112 1.0 3.0 0.00 0.00 0.00 57 1014.0
20260831023955 89 85 2.0 3.0 0.00 0.00 0.00 56 1014.0
20260831023454 89 137 2.0 5.0 0.00 0.00 0.00 56 1014.0
20260831022954 89 147 2.0 3.0 0.00 0.00 0.00 56 1014.0
20260831022455 89 159 1.0 3.0 0.00 0.00 0.00 56 1014.0
20260831021955 89 116 3.0 5.0 0.00 0.00 0.00 55 1014.0
20260831021454 90 116 2.0 3.0 0.00 0.00 0.00 54 1014.0
20260831020955 90 126 2.0 4.0 0.00 0.00 0.00 54 1014.0
20260831020454 90 111 3.0 6.0 0.00 0.00 0.00 52 1014.0
20260831015954 90 163 1.0 2.0 0.00 0.00 0.00 51 1014.0
20260831015454 90 97 3.0 6.0 0.00 0.00 0.00 47 1014.0
20260831014955 91 143 1.0 2.0 0.00 0.00 0.00 45 1014.0
20260831014454 91 123 0.0 1.0 0.00 0.00 0.00 44 1013.0
20260831013954 91 104 1.0 2.0 0.00 0.00 0.00 43 1013.0
20260831013454 91 85 1.0 2.0 0.00 0.00 0.00 43 1013.0
20260831012954 92 74 0.0 1.0 0.00 0.00 0.00 43 1013.0
20260831012454 92 92 0.0 2.0 0.00 0.00 0.00 42 1013.0
20260831011955 92 110 1.0 2.0 0.00 0.00 0.00 42 1013.0
20260831011455 92 103 1.0 2.0 0.00 0.00 0.00 42 1013.0
20260831010954 93 116 0.0 1.0 0.00 0.00 0.00 41 1013.0
20260831010454 93 157 1.0 2.0 0.00 0.00 0.00 42 1013.0
20260831005954 93 139 2.0 4.0 0.00 0.00 0.00 41 1013.0
20260831005455 93 121 1.0 2.0 0.00 0.00 0.00 41 1013.0
20260831004955 94 150 1.0 2.0 0.00 0.00 0.00 41 1013.0
20260831004455 94 102 1.0 2.0 0.00 0.00 0.00 41 1013.0
20260831003954 94 102 1.0 3.0 0.00 0.00 0.00 41 1013.0
20260831003454 95 115 1.0 3.0 0.00 0.00 0.00 41 1013.0
20260831002954 95 100 1.0 2.0 0.00 0.00 0.00 40 1013.0
20260831002454 96 166 1.0 2.0 0.00 0.00 0.00 40 1013.0
20260831001955 96 133 2.0 2.0 0.00 0.00 0.00 39 1013.0
20260831001454 97 115 2.0 3.0 0.00 0.00 0.00 39 1013.0
20260831000954 97 125 1.0 2.0 0.00 0.00 0.00 38 1013.0
20260831000454 97 157 1.0 2.0 0.00 0.00 0.00 37 1013.0
20260830235955 97 128 2.0 4.0 0.00 0.00 0.00 37 1013.0
20260830235454 98 120 1.0 2.0 0.00 0.00 0.00 37 1013.0
20260830234954 98 118 1.0 3.0 0.00 0.00 0.00 37 1013.0
20260830234454 98 137 2.0 4.0 0.00 0.00 0.00 37 1013.0
20260830233954 98 93 2.0 3.0 0.00 0.00 0.00 37 1013.0
20260830233454 98 124 1.0 2.0 0.00 0.00 0.00 37 1013.0
20260830232954 98 144 2.0 5.0 0.00 0.00 0.00 37 1013.0
20260830232454 98 83 2.0 4.0 0.00 0.00 0.00 36 1013.0
20260830231955 99 140 2.0 4.0 0.00 0.00 0.00 36 1013.0
20260830231454 99 190 2.0 3.0 0.00 0.00 0.00 38 1013.0
20260830230955 99 173 2.0 4.0 0.00 0.00 0.00 37 1013.0
20260830230454 99 172 2.0 4.0 0.00 0.00 0.00 37 1013.0
20260830225956 99 124 2.0 3.0 0.00 0.00 0.00 37 1013.0
20260830225454 99 135 2.0 5.0 0.00 0.00 0.00 38 1013.0
20260830224954 99 183 2.0 4.0 0.00 0.00 0.00 38 1013.0
20260830224454 99 150 2.0 3.0 0.00 0.00 0.00 37 1013.0
20260830223954 98 183 3.0 4.0 0.00 0.00 0.00 37 1013.0
20260830223455 97 134 2.0 4.0 0.00 0.00 0.00 38 1013.0
20260830222954 97 143 2.0 2.0 0.00 0.00 0.00 40 1013.0
20260830222454 97 139 2.0 2.0 0.00 0.00 0.00 40 1013.0
20260830221954 97 157 1.0 2.0 0.00 0.00 0.00 41 1013.0
20260830221454 98 113 1.0 2.0 0.00 0.00 0.00 39 1013.0
20260830220954 98 106 1.0 2.0 0.00 0.00 0.00 40 1013.0
20260830220454 98 129 2.0 4.0 0.00 0.00 0.00 39 1013.0
20260830215954 98 86 2.0 4.0 0.00 0.00 0.00 39 1013.0
20260830215454 98 102 2.0 4.0 0.00 0.00 0.00 40 1013.0
20260830214955 98 172 2.0 4.0 0.00 0.00 0.00 39 1013.0
20260830214454 98 98 2.0 3.0 0.00 0.00 0.00 39 1013.0
20260830213954 99 124 2.0 3.0 0.00 0.00 0.00 39 1013.0
20260830213454 100 130 1.0 3.0 0.00 0.00 0.00 39 1013.0
20260830212954 100 143 2.0 5.0 0.00 0.00 0.00 38 1014.0
20260830212455 100 146 2.0 3.0 0.00 0.00 0.00 38 1014.0
20260830211955 99 174 3.0 4.0 0.00 0.00 0.00 37 1014.0
20260830211455 98 163 2.0 4.0 0.00 0.00 0.00 39 1014.0
20260830210954 98 88 2.0 4.0 0.00 0.00 0.00 40 1014.0
20260830210454 98 97 2.0 4.0 0.00 0.00 0.00 41 1014.0
20260830205955 99 110 2.0 4.0 0.00 0.00 0.00 40 1014.0
20260830205454 98 147 2.0 4.0 0.00 0.00 0.00 40 1014.0
20260830204954 98 166 4.0 6.0 0.00 0.00 0.00 40 1014.0
20260830204454 97 146 2.0 4.0 0.00 0.00 0.00 42 1014.0
20260830203956 97 160 3.0 6.0 0.00 0.00 0.00 41 1014.0
20260830203454 97 163 3.0 5.0 0.00 0.00 0.00 41 1014.0
20260830202954 97 152 2.0 4.0 0.00 0.00 0.00 40 1014.0
20260830202454 96 113 2.0 4.0 0.00 0.00 0.00 42 1014.0
20260830201955 96 121 1.0 3.0 0.00 0.00 0.00 44 1015.0
20260830201455 97 126 1.0 2.0 0.00 0.00 0.00 44 1015.0
20260830200954 97 173 3.0 5.0 0.00 0.00 0.00 43 1015.0
20260830200455 97 145 2.0 4.0 0.00 0.00 0.00 44 1015.0
20260830195954 97 184 4.0 5.0 0.00 0.00 0.00 43 1015.0
20260830195454 96 115 2.0 4.0 0.00 0.00 0.00 44 1015.0
20260830194954 96 175 3.0 6.0 0.00 0.00 0.00 44 1015.0
20260830194454 97 179 2.0 3.0 0.00 0.00 0.00 44 1015.0
20260830193954 96 136 2.0 3.0 0.00 0.00 0.00 45 1015.0
20260830193454 96 91 2.0 2.0 0.00 0.00 0.00 45 1015.0
20260830192954 96 187 4.0 8.0 0.00 0.00 0.00 45 1015.0
20260830192455 96 76 2.0 3.0 0.00 0.00 0.00 46 1015.0
20260830191954 96 107 2.0 4.0 0.00 0.00 0.00 45 1015.0